Starlink 3073

operational
NORAD ID: 49135 Int'l Des: 2021-082 Owner: SPXS Country: US Constellation: starlink
LEOCIRCULAR

Starlink 3073について

説明を読み込み中...

リアルタイム位置

3D地球を読み込み中...

次回通過

高度履歴

Altitude vs Time

uPlot chart will show altitude changes over time

軌道要素

1 49135U 21082F 25304.84172433 -.00000101 00000-0 -70151-6 0 9995
2 49135 70.0002 219.3061 0002680 271.8972 88.1880 14.98319993227670
Epoch: Oct 31, 2025 • Age: 22 hours

現在のステータス

高度 593.3 km
速度 7.56 km/s
衛星直下点 -61.26°S, 140.52°W
打ち上げ日 Sep 14, 2021
運用期間 4.1 years
タイプ internet

技術仕様

分類 Payload
質量 297.00 kg
乾燥質量 275.00 kg
総質量 297.00 kg
長さ 0.20 m
直径 2.80 m
スパン 9.00 m
形状 Box + pan
製造者 SPXS
バスタイプ Starlink
フェーズステータス In Orbit
所有者/国 SPXS/US

大規模コンステレーション

Loading constellations...